This is the latest recevied weather packets stored in our database for station/object DG8SF-13. If no packets are shown the sender has not sent any weather packets the latest 10 day(s).
| Time | Temp. | Humidity | Pressure | Rain* | Wind** | Luminosity | Snow |
|---|---|---|---|---|---|---|---|
| 1787477646 | 22.78° C | 47% | 1022.3 hPa | 0 mm | - | - | - |
| 1787477334 | 22.22° C | 49% | 1022.4 hPa | 0 mm | - | - | - |
| 1787477021 | 21.67° C | 47% | 1022.4 hPa | 0 mm | - | - | - |
| 1787476712 | 21.67° C | 46% | 1022.4 hPa | 0 mm | - | - | - |
| 1787476373 | 21.67° C | 48% | 1022.4 hPa | 0 mm | - | - | - |
| 1787476061 | 20.56° C | 48% | 1022.5 hPa | 0 mm | - | - | - |
| 1787475753 | 20° C | 49% | 1022.5 hPa | 0 mm | - | - | - |
| 1787475437 | 21.11° C | 52% | 1022.4 hPa | 0 mm | - | - | - |
| 1787475127 | 21.11° C | 50% | 1022.4 hPa | 0 mm | - | - | - |
| 1787474814 | 20° C | 53% | 1022.4 hPa | 0 mm | - | - | - |
| 1787474508 | 21.11° C | 54% | 1022.4 hPa | 0 mm | - | - | - |
| 1787474190 | 20.56° C | 52% | 1022.3 hPa | 0 mm | - | - | - |
| 1787473876 | 20.56° C | 53% | 1022.3 hPa | 0 mm | - | - | - |
| 1787473566 | 21.67° C | 52% | 1022.4 hPa | 0 mm | - | - | - |
| 1787473254 | 20.56° C | 54% | 1022.3 hPa | 0 mm | - | - | - |
| 1787472947 | 20.56° C | 54% | 1022.4 hPa | 0 mm | - | - | - |
| 1787472617 | 20° C | 56% | 1022.4 hPa | 0 mm | - | - | - |
| 1787472307 | 19.44° C | 58% | 1022.4 hPa | 0 mm | - | - | - |
| 1787471993 | 19.44° C | 57% | 1022.4 hPa | 0 mm | - | - | - |
| 1787471682 | 19.44° C | 58% | 1022.5 hPa | 0 mm | - | - | - |
| 1787471374 | 18.33° C | 60% | 1022.4 hPa | 0 mm | - | - | - |
| 1787471059 | 18.89° C | 60% | 1022.6 hPa | 0 mm | - | - | - |
| 1787470746 | 17.78° C | 63% | 1022.5 hPa | 0 mm | - | - | - |
| 1787470437 | 18.33° C | 61% | 1022.6 hPa | 0 mm | - | - | - |
| 1787470121 | 17.78° C | 63% | 1022.5 hPa | 0 mm | - | - | - |
* Rain latest hour (hover to see other rain measurements)
** Current wind speed in m/s (hover to see current wind gust speed)